Location: Matera
(40.6670°N, 16.6000°E)
Time: 07:47:16
(UTC+01:00)

ISS - Pass Details

Date: 30 January 2019
Orbit: 403 x 411 km, 51.6° (Epoch: 17 February)

Event Time Altitude Azimuth Distance (km) Brightness Sun altitude
Rises 19:02:31 0° 304° (NW) 2,337 0.8 -21.8°
Reaches altitude 10° 19:05:36 10° 335° (NNW) 1,478 -0.8 -22.3°
Enters shadow 19:06:10 11° 345° (NNW) 1,392 -1.0 -22.4°
